Fergus Falls, MN

10:06 PM CST on November 13, 2019 (GMT -0600)
Fergus Falls Municipal-Mickelson

Weather History for KFFM - September, 2019

Change the Weather History Date:

Wednesday, September 18, 2019

  Actual Average Record
Temperature  
Mean Temperature 70 °F -  
Max Temperature 77 °F 70 °F 91 °F (1998)
Min Temperature 62 °F 47 °F 32 °F (1971)
Cooling Degree Days 4    
Growing Degree Days 20 (Base 50)    
Moisture  
Dew Point 62 °F    
Average Humidity 75    
Maximum Humidity 94    
Minimum Humidity 57    
Precipitation  
Precipitation 0.00 in - - ()
Sea Level Pressure  
Sea Level Pressure 29.78 in    
Wind  
Wind Speed 13 mph ()    
Max Wind Speed 22 mph    
Max Gust Speed 30 mph    
Visibility 9.9 miles    
Events Rain , Thunderstorm    
Averages and records for this station are not official NWS values.
T = Trace of Precipitation, MM = Missing Value Source: Averaged Metar Reports

Daily Weather History Graph

Daily Weather History Graph

Search for Another Location

Airport or City:

Astronomy

Sep. 18, 2019 Rise Set
Actual Time 7:06 AM CDT 7:30 PM CDT
Civil Twilight 6:36 AM CDT 8:00 PM CDT
Nautical Twilight 6:00 AM CDT 8:36 PM CDT
Astronomical Twilight 5:23 AM CDT 9:12 PM CDT
Moon 9:51 PM CDT (9/18) 11:23 AM CDT (9/18)
Length of Visible Light 13h 24m
Length of Day
12h 24m
Waning Gibbous, 82% of the Moon is Illuminated
Sep 18
Waning Gibbous
Sep 21
Last Quarter
Sep 28
New
Oct 5
First Quarter
Oct 13
Full

Hourly Weather History & Observations

Time (CDT) Temp. Dew Point Humidity Pressure Visibility Wind Dir Wind Speed Gust Speed Precip Events Conditions
12:16 AM 77.0 °F 66.2 °F 69% 29.70 in 10.0 mi South 20.7 mph 28.8 mph N/A   Clear
12:36 AM 77.0 °F 66.2 °F 69% 29.70 in 10.0 mi South 21.9 mph 29.9 mph N/A   Clear
12:55 AM 77.0 °F 66.2 °F 69% 29.69 in 10.0 mi South 19.6 mph 26.5 mph N/A   Clear
12:56 AM 77.0 °F 66.2 °F 69% 29.69 in 10.0 mi South 20.7 mph 26.5 mph N/A Thunderstorm Clear
1:15 AM 77.0 °F 66.2 °F 69% 29.69 in 10.0 mi South 18.4 mph 25.3 mph N/A   Mostly Cloudy
1:37 AM 75.2 °F 68.0 °F 78% 29.68 in 10.0 mi South 20.7 mph 29.9 mph N/A Rain , Thunderstorm Light Thunderstorms and Rain
1:55 AM 73.4 °F 66.2 °F 78% 29.69 in 10.0 mi South 20.7 mph - N/A Thunderstorm Thunderstorm
2:15 AM 75.2 °F 66.2 °F 73% 29.71 in 10.0 mi SW 15.0 mph 23.0 mph N/A Rain , Thunderstorm Light Thunderstorms and Rain
2:16 AM 75.2 °F 66.2 °F 73% 29.71 in 10.0 mi SW 17.3 mph 23.0 mph N/A Rain , Thunderstorm Light Thunderstorms and Rain
2:35 AM 73.4 °F 68.0 °F 83% 29.72 in 10.0 mi SW 11.5 mph 23.0 mph N/A Rain , Thunderstorm Light Thunderstorms and Rain
2:36 AM 73.4 °F 68.0 °F 83% 29.71 in 10.0 mi SW 10.4 mph 23.0 mph N/A Rain , Thunderstorm Light Thunderstorms and Rain
2:58 AM 73.4 °F 68.0 °F 83% 29.71 in 10.0 mi SSW 8.1 mph - N/A   Mostly Cloudy
3:17 AM 71.6 °F 66.2 °F 83% 29.65 in 7.0 mi ENE 8.1 mph - N/A Rain Light Rain
3:36 AM 71.6 °F 66.2 °F 83% 29.64 in 10.0 mi South 15.0 mph 21.9 mph N/A Rain Light Rain
3:55 AM 69.8 °F 64.4 °F 83% 29.70 in 10.0 mi SSW 17.3 mph 26.5 mph N/A   Scattered Clouds
3:56 AM 69.8 °F 64.4 °F 83% 29.70 in 10.0 mi SSW 18.4 mph 26.5 mph N/A   Scattered Clouds
4:15 AM 68.0 °F 64.4 °F 88% 29.70 in 10.0 mi SSW 10.4 mph - N/A   Clear
4:20 AM 68.0 °F 62.6 °F 83% 29.70 in 10.0 mi SSW 9.2 mph - N/A   Clear
4:37 AM 66.2 °F 62.6 °F 88% 29.71 in 10.0 mi South 8.1 mph - N/A   Clear
4:55 AM 66.2 °F 62.6 °F 88% 29.71 in 10.0 mi South 5.8 mph - N/A   Clear
5:15 AM 66.2 °F 62.6 °F 88% 29.72 in 10.0 mi SSE 9.2 mph - N/A   Clear
5:16 AM 66.2 °F 62.6 °F 88% 29.72 in 10.0 mi SSE 9.2 mph - N/A   Clear
5:35 AM 66.2 °F 62.6 °F 88% 29.72 in 10.0 mi SSE 10.4 mph - N/A   Clear
5:58 AM 68.0 °F 62.6 °F 83% 29.73 in 10.0 mi SE 10.4 mph - N/A   Clear
6:16 AM 68.0 °F 64.4 °F 88% 29.73 in 10.0 mi SSE 11.5 mph - N/A   Clear
6:36 AM 68.0 °F 64.4 °F 88% 29.74 in 10.0 mi SSE 11.5 mph - N/A   Clear
6:55 AM 69.8 °F 66.2 °F 88% 29.74 in 10.0 mi SSE 12.7 mph - N/A   Scattered Clouds
6:56 AM 69.8 °F 66.2 °F 88% 29.74 in 10.0 mi SSE 12.7 mph - N/A   Scattered Clouds
7:15 AM 69.8 °F 66.2 °F 88% 29.74 in 10.0 mi SSE 12.7 mph - N/A   Scattered Clouds
7:20 AM 69.8 °F 66.2 °F 88% 29.74 in 10.0 mi South 12.7 mph - N/A   Mostly Cloudy
7:37 AM 69.8 °F 66.2 °F 88% 29.74 in 10.0 mi South 11.5 mph - N/A   Mostly Cloudy
7:55 AM 69.8 °F 66.2 °F 88% 29.74 in 10.0 mi South 11.5 mph - N/A   Scattered Clouds
8:15 AM 69.8 °F 68.0 °F 94% 29.74 in 7.0 mi South 11.5 mph - N/A   Clear
8:16 AM 69.8 °F 68.0 °F 94% 29.74 in 7.0 mi South 11.5 mph - N/A   Clear
8:35 AM 69.8 °F 68.0 °F 94% 29.74 in 7.0 mi South 10.4 mph - N/A   Clear
8:36 AM 69.8 °F 68.0 °F 94% 29.74 in 7.0 mi South 9.2 mph - N/A   Clear
8:58 AM 71.6 °F 68.0 °F 88% 29.74 in 10.0 mi SW 13.8 mph - N/A   Mostly Cloudy
9:16 AM 69.8 °F 66.2 °F 88% 29.75 in 10.0 mi SW 12.7 mph - N/A   Mostly Cloudy
9:35 AM 71.6 °F 64.4 °F 78% 29.75 in 10.0 mi WSW 10.4 mph - N/A   Clear
9:36 AM 71.6 °F 64.4 °F 78% 29.75 in 10.0 mi WSW 11.5 mph - N/A   Clear
9:55 AM 69.8 °F 60.8 °F 73% 29.76 in 10.0 mi West 15.0 mph - N/A   Clear
9:56 AM 69.8 °F 60.8 °F 73% 29.76 in 10.0 mi West 15.0 mph - N/A   Clear
10:15 AM 68.0 °F 57.2 °F 68% 29.77 in 10.0 mi WSW 12.7 mph 20.7 mph N/A   Clear
10:19 AM 68.0 °F 57.2 °F 68% 29.77 in 10.0 mi WSW 15.0 mph 20.7 mph N/A   Clear
10:38 AM 68.0 °F 57.2 °F 68% 29.76 in 10.0 mi SW 11.5 mph - N/A   Clear
10:55 AM 69.8 °F 57.2 °F 64% 29.76 in 10.0 mi SW 10.4 mph - N/A   Clear
11:15 AM 69.8 °F 57.2 °F 64% 29.77 in 10.0 mi WSW 10.4 mph 15.0 mph N/A   Clear
11:16 AM 69.8 °F 57.2 °F 64% 29.77 in 10.0 mi WSW 11.5 mph 15.0 mph N/A   Clear
11:35 AM 69.8 °F 57.2 °F 64% 29.78 in 10.0 mi WSW 16.1 mph - N/A   Clear
11:36 AM 69.8 °F 57.2 °F 64% 29.78 in 10.0 mi WSW 16.1 mph - N/A   Clear
11:58 AM 71.6 °F 57.2 °F 60% 29.78 in 10.0 mi WSW 15.0 mph - N/A   Clear
12:16 PM 71.6 °F 57.2 °F 60% 29.79 in 10.0 mi SW 16.1 mph 19.6 mph N/A   Clear
12:35 PM 71.6 °F 57.2 °F 60% 29.79 in 10.0 mi WSW 17.3 mph 23.0 mph N/A   Clear
12:36 PM 71.6 °F 57.2 °F 60% 29.79 in 10.0 mi WSW 16.1 mph 23.0 mph N/A   Clear
12:55 PM 71.6 °F 59.0 °F 64% 29.79 in 10.0 mi SW 18.4 mph - N/A   Clear
12:56 PM 71.6 °F 57.2 °F 60% 29.79 in 10.0 mi SW 17.3 mph 20.7 mph N/A   Clear
1:15 PM 73.4 °F 57.2 °F 57% 29.79 in 10.0 mi WSW 18.4 mph - N/A   Clear
1:19 PM 73.4 °F 57.2 °F 57% 29.80 in 10.0 mi WSW 16.1 mph - N/A   Clear
1:38 PM 73.4 °F 59.0 °F 61% 29.80 in 10.0 mi WSW 17.3 mph 25.3 mph N/A   Clear
1:55 PM 73.4 °F 59.0 °F 61% 29.80 in 10.0 mi WSW 20.7 mph 24.2 mph N/A   Scattered Clouds
2:15 PM 73.4 °F 59.0 °F 61% 29.80 in 10.0 mi WSW 18.4 mph 26.5 mph N/A   Scattered Clouds
2:16 PM 73.4 °F 59.0 °F 61% 29.80 in 10.0 mi WSW 16.1 mph 26.5 mph N/A   Scattered Clouds
2:35 PM 73.4 °F 59.0 °F 61% 29.80 in 10.0 mi West 18.4 mph - N/A   Scattered Clouds
2:36 PM 73.4 °F 59.0 °F 61% 29.80 in 10.0 mi West 18.4 mph - N/A   Scattered Clouds
2:58 PM 73.4 °F 59.0 °F 61% 29.80 in 10.0 mi WSW 17.3 mph 25.3 mph N/A   Scattered Clouds
3:17 PM 73.4 °F 59.0 °F 61% 29.80 in 10.0 mi WSW 17.3 mph 24.2 mph N/A   Clear
3:36 PM 73.4 °F 59.0 °F 61% 29.80 in 10.0 mi WSW 18.4 mph 25.3 mph N/A   Clear
3:55 PM 73.4 °F 59.0 °F 61% 29.81 in 10.0 mi West 19.6 mph 25.3 mph N/A   Clear
3:56 PM 73.4 °F 59.0 °F 61% 29.81 in 10.0 mi WSW 17.3 mph 25.3 mph N/A   Clear
4:15 PM 75.2 °F 60.8 °F 61% 29.81 in 10.0 mi West 17.3 mph 21.9 mph N/A   Clear
4:20 PM 75.2 °F 59.0 °F 57% 29.81 in 10.0 mi West 18.4 mph 21.9 mph N/A   Clear
4:37 PM 73.4 °F 60.8 °F 65% 29.82 in 10.0 mi WSW 13.8 mph - N/A   Clear
4:55 PM 73.4 °F 60.8 °F 65% 29.82 in 10.0 mi WSW 16.1 mph 19.6 mph N/A   Scattered Clouds
5:15 PM 75.2 °F 60.8 °F 61% 29.82 in 10.0 mi West 11.5 mph - N/A   Clear
5:16 PM 75.2 °F 60.8 °F 61% 29.82 in 10.0 mi West 10.4 mph - N/A   Clear
5:35 PM 75.2 °F 60.8 °F 61% 29.83 in 10.0 mi WSW 11.5 mph - N/A   Clear
5:36 PM 75.2 °F - N/A% 29.83 in 10.0 mi WSW 11.5 mph - N/A   Clear
5:59 PM 75.2 °F 60.8 °F 61% 29.84 in 10.0 mi WSW 9.2 mph - N/A   Clear
6:16 PM 73.4 °F 60.8 °F 65% 29.84 in 10.0 mi WSW 6.9 mph - N/A   Clear
6:36 PM 73.4 °F 60.8 °F 65% 29.84 in 10.0 mi WSW 6.9 mph - N/A   Clear
6:55 PM 73.4 °F 60.8 °F 65% 29.84 in 10.0 mi SW 8.1 mph - N/A   Clear
6:56 PM 73.4 °F 60.8 °F 65% 29.84 in 10.0 mi SW 8.1 mph - N/A   Clear
7:15 PM 71.6 °F 60.8 °F 69% 29.84 in 10.0 mi SW 8.1 mph - N/A   Clear
7:19 PM 71.6 °F 60.8 °F 69% 29.84 in 10.0 mi SSW 8.1 mph - N/A   Clear
7:37 PM 69.8 °F 60.8 °F 73% 29.85 in 10.0 mi SSW 6.9 mph - N/A   Clear
7:55 PM 66.2 °F 60.8 °F 83% 29.86 in 10.0 mi South 6.9 mph - N/A   Clear
8:15 PM 68.0 °F 60.8 °F 78% 29.86 in 10.0 mi SSW 6.9 mph - N/A   Clear
8:16 PM 68.0 °F 60.8 °F 78% 29.86 in 10.0 mi SSW 5.8 mph - N/A   Clear
8:35 PM 68.0 °F 60.8 °F 78% 29.87 in 10.0 mi SSW 8.1 mph - N/A   Clear
8:36 PM 68.0 °F 60.8 °F 78% 29.87 in 10.0 mi SSW 8.1 mph - N/A   Clear
8:58 PM 66.2 °F 60.8 °F 83% 29.88 in 10.0 mi SSW 6.9 mph - N/A   Clear
9:17 PM 66.2 °F 60.8 °F 83% 29.88 in 10.0 mi SSW 5.8 mph - N/A   Clear
9:36 PM 66.2 °F 60.8 °F 83% 29.89 in 10.0 mi SSW 8.1 mph - N/A   Clear
9:55 PM 66.2 °F 60.8 °F 83% 29.89 in 10.0 mi SW 6.9 mph - N/A   Clear
9:56 PM 66.2 °F 60.8 °F 83% 29.89 in 10.0 mi SW 6.9 mph - N/A   Clear
10:15 PM 66.2 °F 60.8 °F 83% 29.89 in 10.0 mi SW 6.9 mph - N/A   Clear
10:37 PM 64.4 °F 60.8 °F 88% 29.90 in 10.0 mi SW 4.6 mph - N/A   Clear
10:55 PM 64.4 °F 60.8 °F 88% 29.90 in 10.0 mi SW 3.5 mph - N/A   Clear
11:15 PM 62.6 °F 60.8 °F 94% 29.90 in 10.0 mi SW 3.5 mph - N/A   Clear
11:16 PM 62.6 °F 60.8 °F 94% 29.90 in 10.0 mi SW 3.5 mph - N/A   Clear
11:35 PM 62.6 °F 60.8 °F 94% 29.90 in 10.0 mi Calm Calm - N/A   Clear
11:36 PM 62.6 °F 60.8 °F 94% 29.91 in 10.0 mi Calm Calm - N/A   Clear
11:58 PM 62.6 °F 60.8 °F 94% 29.91 in 10.0 mi Calm Calm - N/A   Clear